Погода в Воронове

Россия / Орловская область     52°22′14″N   36°55′44″E
темп.,
°C
ветер,
м/с
пор.,
м/с
влажн.,
%
обл.,
%
осадки,
мм/ч
давл.,
гПа
погр.,
м
19 апреля, пн
пн1900:00+6всв3385100 0.0 101758
03:00+6всв3895100 3.6 1017598
06:00+6в3694100 1.6 1017423
09:00+7всв359088 1.7 1017359
12:00+9всв347650 0.2 1017727
15:00+11всв456164 0.8 10161330
18:00+9св788385 1.1 1016660
21:00+6св5989100 1.3 1017493
20 апреля, вт
вт2000:00+6св4892100 0.1 1016447
03:00+6всв479499 0.1 1015294
06:00+6всв489888 0.1 1014309
09:00+8в688699 0.2 1013523
12:00+9в7983100 0.1 1012827
15:00+9всв81285100 0.4 1009937
18:00+7св101594100 7.5 1003975
21:00+5св101794100 19.0 999865
21 апреля, ср
ср2100:00+10ююв71391100 8.2 996667
03:00+9ююв51093100 8.8 995588
06:00+2з81596100 1.0 1000562
09:00+3зюз81396100 1.2 1005803
12:00+5зюз81290100 0.1 10081001
15:00+8зюз71073100 0.3 10111236
18:00+7юз597788 0.3 1013508
21:00+4ююз3885100 0.3 1015148
22 апреля, чт
чт2200:00+6ююз51284100 0.3 1015499
03:00+6ююз4118798 1.9 1016389
06:00+5ююз498994 0.1 1017277
09:00+8ююз598091 0.1 1018382
12:00+13юз796341 0.6 10181424
15:00+14ююз81060100 2.9 10181475
18:00+12ююз5107097 1.4 1018583
21:00+9ю410849 1.5 1019204
23 апреля, пт
пт2300:00+7ю4108735 0.0 1019196
03:00+7ю410905 0.0 1019182
06:00+7ю410935 0.0 1018224
09:00+11ю6107469 0.0 1018628
12:00+15ююз810575 0.4 10161547
15:00+16ююз810475 1.0 10142153
18:00+14ю6106324 1.1 1013655
21:00+9з5108794 3.0 1014487